| time (UTC) | temp F | wind direction | speed knots | gust knots | rain 1hr in | rain 24hr in | rain mn in | humidity % | barometer mb |
| 20260510081730 | 51 | 104 | 0.9 | 1.7 | 0.00 | 0.14 | 0.00 | 96 | 1012.2 |
| 20260510081230 | 51 | 92 | 0.9 | 2.6 | 0.00 | 0.14 | 0.00 | 96 | 1012.1 |
| 20260510080735 | 51 | 90 | 0.9 | 2.6 | 0.00 | 0.14 | 0.00 | 96 | 1012.2 |
| 20260510080229 | 51 | 106 | 0.9 | 2.6 | 0.00 | 0.14 | 0.00 | 96 | 1012.3 |
| 20260510075730 | 51 | 124 | 0.9 | 2.6 | 0.00 | 0.14 | 0.00 | 96 | 1012.3 |
| 20260510075229 | 51 | 58 | 0.0 | 1.7 | 0.00 | 0.14 | 0.00 | 96 | 1012.2 |
| 20260510074832 | 50 | 34 | 0.0 | 1.7 | 0.00 | 0.14 | 0.00 | 96 | 1012.4 |
| 20260510074805 | 50 | 34 | 0.0 | 1.7 | 0.00 | 0.14 | 0.00 | 96 | 1012.3 |
| 20260510073844 | 50 | 28 | 0.9 | 0.9 | 0.00 | 0.14 | 0.00 | 96 | 1012.5 |
| 20260510072214 | 50 | 355 | 0.9 | 7.0 | 0.00 | 0.14 | 0.00 | 95 | 1012.6 |
| 20260510072148 | 50 | 351 | 1.7 | 7.0 | 0.00 | 0.14 | 0.00 | 95 | 1012.6 |
| 20260510071212 | 50 | 330 | 1.7 | 7.0 | 0.00 | 0.14 | 0.00 | 95 | 1012.3 |
| 20260510070710 | 51 | 315 | 0.9 | 7.0 | 0.00 | 0.14 | 0.00 | 96 | 1012.5 |
| 20260510070212 | 50 | 85 | 0.0 | 0.9 | 0.00 | 0.14 | 0.00 | 96 | 1011.9 |
| 20260510065715 | 50 | 85 | 0.0 | 0.9 | 0.00 | 0.14 | 0.00 | 96 | 1011.8 |
| 20260510065202 | 50 | 85 | 0.0 | 0.9 | 0.00 | 0.14 | 0.00 | 96 | 1011.9 |
| 20260510064710 | 50 | 85 | 0.0 | 0.0 | 0.00 | 0.14 | 0.00 | 96 | 1011.9 |
| 20260510064204 | 50 | 85 | 0.0 | 0.0 | 0.00 | 0.14 | 0.00 | 96 | 1011.8 |
| 20260510063707 | 50 | 85 | 0.0 | 1.7 | 0.00 | 0.14 | 0.00 | 96 | 1011.9 |
| 20260510063602 | 50 | 85 | 0.0 | 1.7 | 0.00 | 0.14 | 0.00 | 95 | 1011.9 |
| 20260510062710 | 50 | 85 | 0.0 | 1.7 | 0.00 | 0.14 | 0.00 | 95 | 1012.1 |
| 20260510062206 | 50 | 85 | 0.0 | 1.7 | 0.00 | 0.14 | 0.00 | 96 | 1012.0 |
| 20260510061709 | 49 | 49 | 0.0 | 0.0 | 0.00 | 0.14 | 0.00 | 95 | 1012.2 |
| 20260510061202 | 49 | 49 | 0.0 | 3.5 | 0.00 | 0.14 | 0.00 | 95 | 1012.1 |
| 20260510060710 | 49 | 49 | 0.0 | 3.5 | 0.00 | 0.14 | 0.00 | 95 | 1012.1 |
| 20260510060206 | 49 | 49 | 0.0 | 3.5 | 0.00 | 0.14 | 0.00 | 95 | 1012.3 |
| 20260510055712 | 49 | 349 | 0.9 | 3.5 | 0.00 | 0.14 | 0.00 | 95 | 1012.3 |
| 20260510055202 | 49 | 350 | 0.9 | 3.5 | 0.00 | 0.14 | 0.00 | 95 | 1012.5 |
| 20260510055048 | 49 | 65 | 0.9 | 1.7 | 0.00 | 0.14 | 0.00 | 95 | 1012.5 |
| 20260510054206 | 48 | 65 | 0.0 | 1.7 | 0.00 | 0.14 | 0.00 | 95 | 1012.1 |
| 20260510050452 | 49 | 65 | 0.0 | 0.0 | 0.00 | 0.14 | 0.00 | 94 | 1011.7 |
| 20260510050210 | 49 | 65 | 0.0 | 0.0 | 0.00 | 0.14 | 0.00 | 94 | 1011.7 |
| 20260510045205 | 49 | 76 | 0.0 | 0.0 | 0.00 | 0.14 | 0.00 | 94 | 1011.6 |
| 20260510044708 | 49 | 69 | 0.0 | 0.0 | 0.00 | 0.14 | 0.00 | 94 | 1011.8 |
| 20260510044407 | 49 | 66 | 0.0 | 0.0 | 0.00 | 0.14 | 0.00 | 94 | 1011.8 |
| 20260510043940 | 50 | 65 | 0.0 | 0.9 | 0.00 | 0.14 | 0.00 | 94 | 1011.8 |
| 20260510043750 | 49 | 65 | 0.0 | 0.9 | 0.00 | 0.14 | 0.00 | 94 | 1011.8 |
| 20260510040158 | 50 | 65 | 0.0 | 0.0 | 0.00 | 0.14 | 0.00 | 94 | 1011.8 |
| 20260510035709 | 50 | 65 | 0.0 | 0.0 | 0.00 | 0.14 | 0.14 | 94 | 1011.8 |
| 20260510004622 | 55 | 165 | 0.0 | 0.9 | 0.00 | 0.14 | 0.14 | 86 | 1010.8 |
| 20260510004348 | 56 | 170 | 0.0 | 0.9 | 0.00 | 0.14 | 0.14 | 85 | 1010.7 |
| 20260509234101 | 60 | 164 | 0.9 | 5.2 | 0.00 | 0.14 | 0.14 | 79 | 1010.2 |
| 20260509233609 | 60 | 168 | 0.9 | 5.2 | 0.00 | 0.14 | 0.14 | 78 | 1010.2 |
| 20260509233325 | 60 | 169 | 1.7 | 5.2 | 0.00 | 0.14 | 0.14 | 78 | 1010.2 |
| 20260509233034 | 60 | 155 | 1.7 | 5.2 | 0.00 | 0.14 | 0.14 | 77 | 1010.1 |
| 20260509232453 | 60 | 166 | 1.7 | 4.3 | 0.00 | 0.14 | 0.14 | 77 | 1010.1 |
| 20260509231733 | 61 | 224 | 1.7 | 3.5 | 0.00 | 0.14 | 0.14 | 76 | 1010.1 |
| 20260509230550 | 62 | 158 | 0.9 | 3.5 | 0.00 | 0.14 | 0.14 | 77 | 1010.1 |
| 20260509230046 | 62 | 136 | 0.9 | 2.6 | 0.00 | 0.14 | 0.14 | 76 | 1010.2 |
| 20260509230001 | 62 | 127 | 0.9 | 2.6 | 0.00 | 0.14 | 0.14 | 75 | 1010.1 |
| 20260509225500 | 62 | 90 | 0.0 | 2.6 | 0.00 | 0.14 | 0.14 | 76 | 1010.1 |
| 20260509224538 | 62 | 101 | 0.9 | 2.6 | 0.00 | 0.14 | 0.14 | 76 | 1010.2 |
| 20260509224039 | 62 | 101 | 0.9 | 2.6 | 0.00 | 0.14 | 0.14 | 76 | 1010.1 |
| 20260509223537 | 62 | 5 | 0.9 | 2.6 | 0.00 | 0.14 | 0.14 | 77 | 1010.1 |
| 20260509223037 | 61 | 355 | 0.9 | 2.6 | 0.00 | 0.14 | 0.14 | 78 | 1010.1 |
| 20260509222537 | 61 | 355 | 0.9 | 2.6 | 0.00 | 0.14 | 0.14 | 79 | 1010.2 |
| 20260509222036 | 60 | 269 | 0.9 | 4.3 | 0.00 | 0.14 | 0.14 | 81 | 1010.3 |
| 20260509221535 | 59 | 305 | 0.9 | 4.3 | 0.00 | 0.14 | 0.14 | 82 | 1010.4 |
| 20260509221034 | 59 | 261 | 0.9 | 4.3 | 0.00 | 0.14 | 0.14 | 82 | 1010.3 |
| 20260509220532 | 59 | 225 | 0.9 | 4.3 | 0.00 | 0.14 | 0.14 | 82 | 1010.4 |
| 20260509220036 | 58 | 0 | 0.9 | 3.5 | 0.00 | 0.14 | 0.14 | 82 | 1010.4 |
| 20260509215537 | 58 | 282 | 0.9 | 2.6 | 0.00 | 0.14 | 0.14 | 83 | 1010.5 |
| 20260509215459 | 58 | 0 | 0.9 | 2.6 | 0.00 | 0.14 | 0.14 | 83 | 1010.4 |
| 20260509214530 | 58 | 0 | 0.9 | 3.5 | 0.00 | 0.14 | 0.14 | 84 | 1010.3 |
| 20260509214028 | 58 | 0 | 0.9 | 3.5 | 0.00 | 0.14 | 0.14 | 83 | 1010.3 |
| 20260509213652 | 58 | 238 | 0.9 | 3.5 | 0.00 | 0.14 | 0.14 | 83 | 1010.3 |
| 20260509212510 | 58 | 240 | 1.7 | 5.2 | 0.00 | 0.14 | 0.14 | 84 | 1010.3 |
| 20260509212007 | 57 | 259 | 1.7 | 4.3 | 0.00 | 0.14 | 0.14 | 85 | 1010.3 |
| 20260509211515 | 57 | 231 | 1.7 | 2.6 | 0.00 | 0.14 | 0.14 | 86 | 1010.5 |
| 20260509211005 | 57 | 277 | 1.7 | 3.5 | 0.00 | 0.14 | 0.14 | 87 | 1010.6 |
| 20260509210507 | 57 | 310 | 1.7 | 3.5 | 0.00 | 0.14 | 0.14 | 87 | 1010.7 |
| 20260509210006 | 57 | 227 | 1.7 | 5.2 | 0.00 | 0.14 | 0.14 | 88 | 1010.8 |
| 20260509205505 | 57 | 242 | 1.7 | 5.2 | 0.00 | 0.14 | 0.14 | 88 | 1010.7 |
| 20260509205002 | 57 | 250 | 1.7 | 6.1 | 0.00 | 0.14 | 0.14 | 88 | 1010.8 |
| 20260509204501 | 57 | 296 | 2.6 | 6.1 | 0.00 | 0.14 | 0.14 | 88 | 1010.8 |
| 20260509204004 | 57 | 265 | 1.7 | 4.3 | 0.00 | 0.14 | 0.14 | 89 | 1011.0 |
| 20260509203506 | 56 | 303 | 1.7 | 4.3 | 0.00 | 0.14 | 0.14 | 89 | 1011.0 |
| 20260509203004 | 56 | 280 | 1.7 | 4.3 | 0.00 | 0.14 | 0.14 | 89 | 1010.9 |
| 20260509202501 | 56 | 246 | 1.7 | 4.3 | 0.00 | 0.14 | 0.14 | 89 | 1010.9 |
| 20260509202002 | 56 | 265 | 1.7 | 3.5 | 0.01 | 0.14 | 0.14 | 89 | 1010.9 |
| 20260509201650 | 56 | 275 | 0.9 | 3.5 | 0.01 | 0.14 | 0.14 | 90 | 1010.9 |
| 20260509200533 | 55 | 242 | 0.9 | 2.6 | 0.01 | 0.14 | 0.14 | 90 | 1010.7 |
| 20260509200037 | 55 | 0 | 0.9 | 2.6 | 0.02 | 0.14 | 0.14 | 90 | 1010.8 |
| 20260509195521 | 55 | 303 | 0.9 | 2.6 | 0.02 | 0.14 | 0.14 | 90 | 1010.9 |
| 20260509195014 | 55 | 236 | 0.9 | 2.6 | 0.03 | 0.14 | 0.14 | 90 | 1010.9 |
| 20260509194604 | 55 | 243 | 0.9 | 1.7 | 0.03 | 0.14 | 0.14 | 91 | 1011.0 |
| 20260509194017 | 55 | 225 | 0.9 | 1.7 | 0.04 | 0.14 | 0.14 | 91 | 1011.0 |
| 20260509193502 | 55 | 0 | 0.0 | 2.6 | 0.04 | 0.14 | 0.14 | 91 | 1011.2 |
| 20260509193353 | 56 | 219 | 0.0 | 2.6 | 0.04 | 0.14 | 0.14 | 92 | 1011.3 |
| 20260509192912 | 55 | 189 | 0.9 | 2.6 | 0.04 | 0.14 | 0.14 | 92 | 1011.2 |
| 20260509192324 | 55 | 176 | 0.9 | 2.6 | 0.03 | 0.13 | 0.13 | 91 | 1011.3 |
| 20260509191503 | 55 | 155 | 0.9 | 2.6 | 0.03 | 0.13 | 0.13 | 91 | 1011.5 |
| 20260509191002 | 55 | 172 | 0.9 | 3.5 | 0.03 | 0.13 | 0.13 | 91 | 1011.6 |
| 20260509190502 | 55 | 184 | 0.9 | 3.5 | 0.04 | 0.13 | 0.13 | 91 | 1012.0 |
| 20260509190309 | 55 | 182 | 0.9 | 7.0 | 0.03 | 0.12 | 0.12 | 90 | 1011.8 |
| 20260509185502 | 55 | 213 | 0.9 | 7.0 | 0.03 | 0.12 | 0.11 | 90 | 1012.4 |
| 20260509185002 | 55 | 190 | 1.7 | 7.0 | 0.02 | 0.11 | 0.11 | 89 | 1012.4 |
| 20260509184504 | 55 | 242 | 1.7 | 7.0 | 0.02 | 0.11 | 0.11 | 89 | 1012.1 |
| 20260509184001 | 55 | 137 | 0.9 | 4.3 | 0.02 | 0.10 | 0.10 | 90 | 1012.4 |
| 20260509183506 | 55 | 234 | 0.9 | 4.3 | 0.02 | 0.10 | 0.10 | 90 | 1012.4 |
| 20260509183002 | 55 | 211 | 0.9 | 4.3 | 0.02 | 0.10 | 0.10 | 90 | 1012.4 |
| 20260509182506 | 55 | 219 | 1.7 | 4.3 | 0.03 | 0.10 | 0.10 | 90 | 1012.2 |
| 20260509182002 | 55 | 255 | 1.7 | 4.3 | 0.04 | 0.10 | 0.10 | 90 | 1012.2 |
| 20260509181506 | 55 | 237 | 1.7 | 4.3 | 0.04 | 0.10 | 0.10 | 90 | 1012.3 |
| 20260509181006 | 55 | 253 | 1.7 | 4.3 | 0.05 | 0.10 | 0.09 | 90 | 1012.4 |
| 20260509180501 | 55 | 224 | 1.7 | 4.3 | 0.05 | 0.09 | 0.09 | 89 | 1012.3 |
| 20260509180005 | 55 | 200 | 1.7 | 3.5 | 0.06 | 0.09 | 0.09 | 90 | 1012.2 |
| 20260509175501 | 55 | 217 | 0.9 | 3.5 | 0.07 | 0.09 | 0.09 | 90 | 1012.0 |
| 20260509175004 | 56 | 211 | 0.9 | 2.6 | 0.07 | 0.09 | 0.09 | 90 | 1011.9 |
| 20260509174509 | 56 | 286 | 0.9 | 2.6 | 0.07 | 0.09 | 0.09 | 89 | 1011.9 |
| 20260509174008 | 56 | 284 | 0.9 | 2.6 | 0.06 | 0.08 | 0.08 | 89 | 1012.0 |
| 20260509173502 | 56 | 227 | 0.9 | 2.6 | 0.07 | 0.08 | 0.08 | 89 | 1012.1 |
| 20260509173005 | 56 | 227 | 0.9 | 2.6 | 0.07 | 0.08 | 0.08 | 89 | 1012.0 |
| 20260509172943 | 56 | 245 | 1.7 | 3.5 | 0.06 | 0.07 | 0.07 | 88 | 1012.0 |
| 20260509172004 | 56 | 252 | 1.7 | 3.5 | 0.06 | 0.06 | 0.06 | 87 | 1011.7 |
| 20260509171502 | 56 | 212 | 0.9 | 3.5 | 0.06 | 0.06 | 0.06 | 87 | 1011.7 |
| 20260509171228 | 56 | 296 | 1.7 | 7.0 | 0.05 | 0.05 | 0.04 | 87 | 1011.9 |
| 20260509170514 | 57 | 286 | 1.7 | 7.0 | 0.04 | 0.04 | 0.03 | 87 | 1012.0 |
| 20260509170012 | 57 | 279 | 2.6 | 7.0 | 0.03 | 0.03 | 0.03 | 87 | 1012.1 |
| 20260509165003 | 57 | 301 | 2.6 | 7.0 | 0.02 | 0.02 | 0.02 | 86 | 1012.2 |
| 20260509164501 | 58 | 247 | 2.6 | 7.0 | 0.02 | 0.02 | 0.02 | 86 | 1012.1 |
| 20260509164002 | 58 | 325 | 1.7 | 6.1 | 0.02 | 0.02 | 0.02 | 86 | 1012.3 |
| 20260509163917 | 58 | 256 | 1.7 | 5.2 | 0.01 | 0.01 | 0.01 | 85 | 1012.2 |
| 20260509163011 | 58 | 264 | 1.7 | 5.2 | 0.01 | 0.01 | 0.01 | 85 | 1012.2 |
| 20260509162722 | 58 | 277 | 2.6 | 7.8 | 0.01 | 0.01 | 0.01 | 84 | 1012.2 |
| 20260509162001 | 58 | 257 | 2.6 | 7.8 | 0.00 | 0.00 | 0.00 | 84 | 1012.2 |
| 20260509160553 | 59 | 224 | 2.6 | 7.0 | 0.00 | 0.00 | 0.00 | 83 | 1012.4 |
| 20260509155002 | 58 | 279 | 2.6 | 6.1 | 0.00 | 0.00 | 0.00 | 81 | 1012.4 |
| 20260509154730 | 58 | 229 | 2.6 | 6.1 | 0.00 | 0.00 | 0.00 | 81 | 1012.5 |
| 20260509154001 | 58 | 258 | 1.7 | 5.2 | 0.00 | 0.00 | 0.00 | 81 | 1012.5 |
| 20260509153502 | 58 | 239 | 1.7 | 5.2 | 0.00 | 0.00 | 0.00 | 81 | 1012.6 |
| 20260509153002 | 58 | 230 | 1.7 | 5.2 | 0.00 | 0.00 | 0.00 | 81 | 1012.5 |
| 20260509152505 | 58 | 0 | 1.7 | 4.3 | 0.00 | 0.00 | 0.00 | 81 | 1012.4 |
| 20260509152002 | 58 | 235 | 1.7 | 5.2 | 0.00 | 0.00 | 0.00 | 81 | 1012.6 |
| 20260509151505 | 58 | 265 | 1.7 | 5.2 | 0.00 | 0.00 | 0.00 | 80 | 1012.5 |
| 20260509151001 | 58 | 280 | 1.7 | 5.2 | 0.00 | 0.00 | 0.00 | 80 | 1012.3 |
| 20260509150929 | 58 | 269 | 1.7 | 3.5 | 0.00 | 0.00 | 0.00 | 80 | 1012.4 |
| 20260509150002 | 58 | 225 | 1.7 | 4.3 | 0.00 | 0.00 | 0.00 | 79 | 1012.3 |
| 20260509145501 | 58 | 250 | 0.9 | 4.3 | 0.00 | 0.00 | 0.00 | 79 | 1012.3 |
| 20260509145002 | 58 | 238 | 0.9 | 4.3 | 0.00 | 0.00 | 0.00 | 79 | 1012.2 |
| 20260509144501 | 58 | 244 | 0.9 | 4.3 | 0.00 | 0.00 | 0.00 | 80 | 1012.3 |
| 20260509144005 | 58 | 243 | 1.7 | 4.3 | 0.00 | 0.00 | 0.00 | 80 | 1012.4 |
| 20260509143504 | 58 | 252 | 1.7 | 4.3 | 0.00 | 0.00 | 0.00 | 80 | 1012.5 |
| 20260509143004 | 58 | 252 | 0.9 | 4.3 | 0.00 | 0.00 | 0.00 | 81 | 1012.5 |
| 20260509142506 | 58 | 295 | 1.7 | 4.3 | 0.00 | 0.00 | 0.00 | 80 | 1012.4 |
| 20260509142006 | 58 | 272 | 1.7 | 4.3 | 0.00 | 0.00 | 0.00 | 80 | 1012.4 |
| 20260509141502 | 58 | 248 | 0.9 | 2.6 | 0.00 | 0.00 | 0.00 | 80 | 1012.4 |
| 20260509141003 | 58 | 220 | 0.9 | 2.6 | 0.00 | 0.00 | 0.00 | 80 | 1012.4 |
| 20260509140501 | 57 | 269 | 0.9 | 2.6 | 0.00 | 0.00 | 0.00 | 80 | 1012.4 |
| 20260509140003 | 57 | 0 | 0.9 | 2.6 | 0.00 | 0.00 | 0.00 | 80 | 1012.4 |
| 20260509135502 | 57 | 232 | 0.9 | 2.6 | 0.00 | 0.00 | 0.00 | 80 | 1012.4 |
| 20260509135004 | 57 | 203 | 0.9 | 2.6 | 0.00 | 0.00 | 0.00 | 80 | 1012.2 |
| 20260509134501 | 57 | 211 | 0.9 | 2.6 | 0.00 | 0.00 | 0.00 | 80 | 1012.1 |
| 20260509134001 | 57 | 218 | 0.9 | 2.6 | 0.00 | 0.00 | 0.00 | 79 | 1012.2 |
| 20260509133501 | 57 | 209 | 0.9 | 4.3 | 0.00 | 0.00 | 0.00 | 79 | 1012.1 |
| 20260509133005 | 57 | 208 | 0.9 | 4.3 | 0.00 | 0.00 | 0.00 | 79 | 1012.3 |
| 20260509132504 | 57 | 182 | 0.9 | 4.3 | 0.00 | 0.00 | 0.00 | 80 | 1012.3 |
| 20260509131958 | 57 | 156 | 1.7 | 4.3 | 0.00 | 0.00 | 0.00 | 79 | 1012.2 |
| 20260509131454 | 57 | 205 | 1.7 | 3.5 | 0.00 | 0.00 | 0.00 | 80 | 1012.2 |
| 20260509130946 | 57 | 204 | 1.7 | 4.3 | 0.00 | 0.00 | 0.00 | 80 | 1012.2 |
| 20260509130451 | 57 | 216 | 1.7 | 4.3 | 0.00 | 0.00 | 0.00 | 79 | 1012.3 |
| 20260509125950 | 56 | 168 | 1.7 | 4.3 | 0.00 | 0.00 | 0.00 | 80 | 1012.3 |
| 20260509125451 | 56 | 172 | 0.9 | 3.5 | 0.00 | 0.00 | 0.00 | 80 | 1012.2 |
| 20260509124945 | 56 | 171 | 0.9 | 2.6 | 0.00 | 0.00 | 0.00 | 80 | 1012.2 |
| 20260509124908 | 56 | 178 | 0.9 | 2.6 | 0.00 | 0.00 | 0.00 | 80 | 1012.2 |
| 20260509123945 | 56 | 180 | 0.0 | 2.6 | 0.00 | 0.00 | 0.00 | 79 | 1012.4 |
| 20260509123443 | 56 | 171 | 0.0 | 1.7 | 0.00 | 0.00 | 0.00 | 80 | 1012.3 |
| 20260509122940 | 56 | 165 | 0.0 | 1.7 | 0.00 | 0.00 | 0.00 | 79 | 1012.4 |
| 20260509122441 | 56 | 150 | 0.0 | 1.7 | 0.00 | 0.00 | 0.00 | 79 | 1012.5 |
| 20260509121940 | 55 | 0 | 0.0 | 1.7 | 0.00 | 0.00 | 0.00 | 79 | 1012.3 |
| 20260509121438 | 55 | 0 | 0.0 | 1.7 | 0.00 | 0.00 | 0.00 | 79 | 1012.4 |
| 20260509121347 | 55 | 0 | 0.0 | 3.5 | 0.00 | 0.00 | 0.00 | 80 | 1012.4 |
| 20260509120434 | 55 | 119 | 0.0 | 3.5 | 0.00 | 0.00 | 0.00 | 80 | 1012.4 |
| 20260509115939 | 54 | 96 | 0.0 | 3.5 | 0.00 | 0.00 | 0.00 | 80 | 1012.4 |
| 20260509115432 | 54 | 94 | 0.0 | 3.5 | 0.00 | 0.00 | 0.00 | 80 | 1012.4 |
| 20260509114934 | 54 | 55 | 0.0 | 1.7 | 0.00 | 0.00 | 0.00 | 81 | 1012.4 |
| 20260509114429 | 54 | 46 | 0.0 | 1.7 | 0.00 | 0.00 | 0.00 | 81 | 1012.4 |
| 20260509113929 | 53 | 43 | 0.0 | 1.7 | 0.00 | 0.00 | 0.00 | 82 | 1012.3 |
| 20260509113431 | 53 | 43 | 0.0 | 1.7 | 0.00 | 0.00 | 0.00 | 81 | 1012.3 |
| 20260509113006 | 53 | 43 | 0.0 | 1.7 | 0.00 | 0.00 | 0.00 | 81 | 1012.1 |
| 20260509112324 | 53 | 86 | 0.0 | 0.9 | 0.00 | 0.00 | 0.00 | 82 | 1012.2 |
| 20260509111429 | 53 | 86 | 0.0 | 0.9 | 0.00 | 0.00 | 0.00 | 82 | 1012.2 |
| 20260509110931 | 53 | 86 | 0.0 | 2.6 | 0.00 | 0.00 | 0.00 | 82 | 1012.4 |
| 20260509110433 | 53 | 86 | 0.0 | 2.6 | 0.00 | 0.00 | 0.00 | 82 | 1012.1 |
| 20260509105929 | 52 | 86 | 0.9 | 2.6 | 0.00 | 0.00 | 0.00 | 81 | 1012.0 |
| 20260509105429 | 52 | 86 | 0.9 | 2.6 | 0.00 | 0.00 | 0.00 | 81 | 1012.1 |
| 20260509104933 | 52 | 32 | 0.0 | 1.7 | 0.00 | 0.00 | 0.00 | 81 | 1012.0 |
| 20260509104429 | 52 | 24 | 0.0 | 0.9 | 0.00 | 0.00 | 0.00 | 81 | 1011.7 |
| 20260509103929 | 52 | 24 | 0.0 | 0.9 | 0.00 | 0.00 | 0.00 | 81 | 1011.9 |
| 20260509103429 | 52 | 24 | 0.0 | 0.9 | 0.00 | 0.00 | 0.00 | 81 | 1012.0 |
| 20260509103323 | 52 | 24 | 0.0 | 0.9 | 0.00 | 0.00 | 0.00 | 81 | 1012.0 |
| 20260509102429 | 52 | 24 | 0.0 | 1.7 | 0.00 | 0.00 | 0.00 | 81 | 1011.9 |
| 20260509101929 | 52 | 24 | 0.0 | 1.7 | 0.00 | 0.00 | 0.00 | 81 | 1012.0 |
| 20260509101433 | 52 | 19 | 0.0 | 1.7 | 0.00 | 0.00 | 0.00 | 81 | 1012.2 |
| 20260509100933 | 52 | 19 | 0.0 | 1.7 | 0.00 | 0.00 | 0.00 | 81 | 1011.9 |
| 20260509100429 | 52 | 11 | 0.0 | 1.7 | 0.00 | 0.00 | 0.00 | 81 | 1011.7 |
| 20260509095930 | 52 | 9 | 0.0 | 0.9 | 0.00 | 0.00 | 0.00 | 81 | 1011.9 |
| 20260509095859 | 52 | 0 | 0.0 | 0.9 | 0.00 | 0.00 | 0.00 | 81 | 1011.8 |
| 20260509094928 | 52 | 0 | 0.0 | 0.9 | 0.00 | 0.00 | 0.00 | 81 | 1012.0 |
| 20260509094429 | 52 | 0 | 0.0 | 0.9 | 0.00 | 0.00 | 0.00 | 81 | 1011.9 |
| 20260509093928 | 52 | 0 | 0.0 | 0.9 | 0.00 | 0.00 | 0.00 | 81 | 1012.1 |
| 20260509093427 | 52 | 0 | 0.0 | 0.9 | 0.00 | 0.00 | 0.00 | 81 | 1012.2 |
| 20260509092928 | 52 | 0 | 0.0 | 0.9 | 0.00 | 0.00 | 0.00 | 81 | 1012.2 |
| 20260509092428 | 52 | 355 | 0.0 | 0.9 | 0.00 | 0.00 | 0.00 | 80 | 1012.2 |
| 20260509091932 | 52 | 355 | 0.0 | 0.9 | 0.00 | 0.00 | 0.00 | 81 | 1012.2 |
| 20260509091428 | 52 | 327 | 0.0 | 0.9 | 0.00 | 0.00 | 0.00 | 81 | 1012.1 |
| 20260509090933 | 52 | 327 | 0.0 | 1.7 | 0.00 | 0.00 | 0.00 | 81 | 1012.1 |
| 20260509090424 | 52 | 327 | 0.0 | 1.7 | 0.00 | 0.00 | 0.00 | 81 | 1012.0 |
| 20260509090330 | 52 | 327 | 0.0 | 1.7 | 0.00 | 0.00 | 0.00 | 81 | 1012.0 |
| 20260509085419 | 52 | 327 | 0.0 | 1.7 | 0.00 | 0.00 | 0.00 | 81 | 1012.1 |
| 20260509084918 | 52 | 327 | 0.0 | 0.9 | 0.00 | 0.00 | 0.00 | 81 | 1012.3 |
| 20260509084415 | 52 | 327 | 0.0 | 0.9 | 0.00 | 0.00 | 0.00 | 81 | 1012.4 |
| 20260509083915 | 52 | 327 | 0.0 | 0.9 | 0.00 | 0.00 | 0.00 | 81 | 1012.7 |
| 20260509083550 | 52 | 327 | 0.0 | 0.9 | 0.00 | 0.00 | 0.00 | 81 | 1012.6 |
| 20260509082418 | 52 | 327 | 0.0 | 0.0 | 0.00 | 0.00 | 0.00 | 81 | 1012.6 |
| 20260509082316 | 52 | 327 | 0.0 | 0.0 | 0.00 | 0.00 | 0.00 | 80 | 1012.7 |